Regional Weather Roundup
Issued by NWS Wakefield, VA

Home | Current Version | Previous Version | Text Only | Print | Product List | Glossary On
Versions: 1 2 3 4 5 6 7 8 9 10 11 12 13 14 15 16 17 18 19 20 21 22 23 24 25 26 27 28 29 30 31 32 33 34 35 36 37 38 39 40 41 42 43 44 45 46 47 48 49 50
000
ASUS41 KAKQ 291913
RWRAKQ

REGIONAL WEATHER ROUNDUP
NATIONAL WEATHER SERVICE WAKEFIELD VA
300 PM EDT SAT AUG 29 2015

Note: "fair" indicates few or no clouds below 12,000 feet with no
significant weather and/or obstructions to visibility. * = Denotes
station may not report precipitation (e.g., rain,snow,etc.),
thunder or fog.

VAZ042-051-052>054-056-292000-
NORTHERN VIRGINIA

CITY           SKY/WX    TMP DP  RH WIND       PRES   REMARKS
WASH NATIONAL  PTSUNNY   87  62  43 S9G17     30.14F
DULLES         PTSUNNY   84  63  49 W6        30.14F
FORT BELVOIR   SUNNY     86  62  45 VRB5      30.14F
QUANTICO       MOSUNNY   83  66  56 S8        30.14F
FREDERICKSBRG* MOSUNNY   89  61  38 SE6       30.13F
STAFFORD*      MOSUNNY   86  58  38 SW8       30.18F
WARRENTON      MOSUNNY   89  64  42 S7        30.13F
CULPEPER*      MOSUNNY   86  64  47 SE5       30.14F
MANASSAS*      SUNNY     86  64  48 SE10      30.14F
LEESBURG*      SUNNY     90  68  48 SW8       30.14F
WINCHESTER     CLOUDY    86  59  39 E5        30.14F
FRONT ROYAL*   FAIR      86  64  48 SE5       30.13F
LURAY*         CLOUDY    86  55  35 CALM      30.14F
$$

VAZ048-049-060>072-079>083-292000-
CENTRAL AND SOUTH CENTRAL VIRGINIA

CITY           SKY/WX    TMP DP  RH WIND       PRES   REMARKS
RICHMOND       PTSUNNY   88  60  38 S6        30.16F
CHESTERFIELD*  FAIR      84  57  39 S9        30.18F
PETERSBURG*    MOSUNNY   86  65  50 CALM      30.18F
HANOVER        MOSUNNY   85  60  42 S7        30.17F
TAPPAHANNOCK*  MOSUNNY   86  55  34 CALM      30.17F
QUINTON*       FAIR      84  64  50 S5        30.16F
CHARLOTTSVILLE SUNNY     86  62  44 S9        30.15F
GORDONSVILLE*  FAIR      87  63  44 S9        30.14F
ORANGE*        SUNNY     88  59  37 S10       30.16F
LOUISA*        MOSUNNY   88  61  40 S8        30.15F
BUMPASS*       FAIR      85  61  44 S6        30.16F
FARMVILLE*     PTSUNNY   86  56  36 S6        30.16F
CREWE*         FAIR     N/A N/A N/A CALM      30.18F
FORT PICKETT*  FAIR      83  60  44 S8        30.19F
CHASE CITY*    MOCLDY    86  63  46 S3        30.18F
CLARKSVILLE*   FAIR      81  61  50 CALM      30.19F
SOUTH HILL*    CLOUDY    83  62  48 S5        30.24F
LAWRENCEVILLE* FAIR      82  63  51 CALM      30.18F
EMPORIA*       PTSUNNY   82  61  47 S3        30.19F
$$

VAZ088>098-292000-
SOUTHEAST VIRGINIA

CITY           SKY/WX    TMP DP  RH WIND       PRES   REMARKS
NORFOLK        MOSUNNY   82  58  43 NE9       30.17F
VIRGINIA BEACH PTSUNNY   83  61  47 E9        30.18F
NORFOLK NAVAL  PTSUNNY   82  61  48 E10       30.19F
WEST POINT*    MOSUNNY   87  55  33 SE6       30.18F
SALUDA*        FAIR      81  62  51 E9        30.17F
NEWPORT NEWS   MOSUNNY   83  61  47 E10       30.18F
LANGLEY AFB    MOSUNNY   83  62  49 SE9       30.17F
FORT EUSTIS    MOSUNNY   84  62  46 S13       30.16F
WILLIAMSBURG*  MOSUNNY   90  64  43 SE9       30.18F
HR EXEC AP*      N/A     86  59  39 N6        30.19F
FRANKLIN*      PTSUNNY   85  59  41 E6        30.17F
WAKEFIELD      PTSUNNY   86  56  35 VRB3      30.17F
$$

VAZ020-022-025-037-045-292000-
WEST CENTRAL AND SOUTHWEST VIRGINIA

CITY           SKY/WX    TMP DP  RH WIND       PRES   REMARKS
STAUNTON*      MOSUNNY   89  51  27 SW9       30.17F
WAYNESBORO*    FAIR      84  58  41 S7        30.18F
HOT SPRINGS VA PTSUNNY   74  57  53 SW5       30.30F
LYNCHBURG      PTSUNNY   83  58  42 S7        30.20F
DANVILLE       CLOUDY    83  61  47 VRB3      30.19F
SOUTH BOSTON*  FAIR      83  57  40 S6        30.18F
MARTINSVILLE   CLOUDY    82  62  49 S3        30.23F
ROANOKE        PTSUNNY   82  59  45 S7        30.20F
BLACKSBURG     CLOUDY    79  62  56 CALM      30.26F
DUBLIN*        CLOUDY    80  62  55 S5        30.25F
MARION*        CLOUDY    77  61  57 CALM      30.29F
HILLSVILLE*    CLOUDY    75  63  66 S7        30.27F
RICHLANDS*     FAIR      76  26  15 CALM      30.27S
WISE*          PTSUNNY   79  54  41 SW7       30.28F
ABINGDON*      CLOUDY    78  59  52 CALM      30.24F
$$

MDZ021>025-VAZ099-100-292000-
SOUTHERN MARYLAND AND THE DELMARVA PENINSULA

CITY           SKY/WX    TMP DP  RH WIND       PRES   REMARKS
PATUXENT RIVER PTSUNNY   81  62  52 SE13      30.16F
BAY BRIDGE APT   N/A     82  59  44 SE10      30.15F
LEONARDTOWN    SUNNY     82  59  44 SE5       30.18F
DOVER          SUNNY     82  68  61 E12       30.14F
GEORGETOWN     CLOUDY    83  59  44 SW9       30.16F
EASTON         MOSUNNY   86  63  45 W9        30.19F
CAMBRIDGE      SUNNY     82  61  47 S7        30.16F
SALISBURY      MOSUNNY   83  60  45 SE7       30.16F
OCEAN CITY     SUNNY     80  61  52 SE7       30.18F
WALLOPS ISLAND MOSUNNY   81  61  50 SE14      30.19F
ACCOMACK*      SUNNY     79  41  25 E5        30.18F
$$

NCZ012>017-030>032-292000-
NORTH CENTRAL AND EASTERN NORTH CAROLINA

CITY           SKY/WX    TMP DP  RH WIND       PRES   REMARKS
ROANOKE RAPIDS FAIR      84  59  42 CALM      30.17F
RALEIGH        CLOUDY    85  57  38 SE7       30.19F
ELIZABETH CITY CLOUDY    82  62  50 NE13      30.18F
AHOSKIE*       CLOUDY    83  60  46 N7        30.17F
EDENTON*       PTSUNNY   83  61  47 NE8       30.18S
CURRITUCK*     PTSUNNY   80  59  47 E8        30.19F
KILL DEVIL HLS PTSUNNY   81  65  57 NE7G16    30.16F
MANTEO         CLOUDY    78  66  66 NE13      30.17F
CAPE HATTERAS  LGT RAIN  75  72  90 NE10G20   30.14F
TARBORO*       FAIR      88  56  34 NE9       30.17F
GOLDSBORO      CLOUDY    83  60  46 NE10      30.16F
WASHINGTON     PTSUNNY   83  63  50 NE6       30.17F
GREENVILLE     CLOUDY    84  59  42 NE9       30.18F
NEW BERN       PTSUNNY   83  61  47 N8        30.17F
WILMINGTON     CLOUDY    85  68  56 NE10      30.15F
$$

VAZ048-292000-
ELSEWHERE

CITY           SKY/WX    TMP DP  RH WIND       PRES   REMARKS
HARRISBURG PA  MOSUNNY   84  62  47 CALM      30.12F
BALTIMORE      PTSUNNY   85  59  41 VRB5      30.13F
ANNAPOLIS      SUNNY     80  64  58 SE15      30.14F
ANDREWS AFB    MOSUNNY   87  61  41 SW6       30.14F
PHILADELPHIA   MOSUNNY   86  58  38 SW7       30.14F
HENDERSON NC   CLOUDY    83  51  33 CALM      30.19F
GREENSBORO     CLOUDY    83  58  42 S8        30.21F
ROCKY MOUNT    PTSUNNY   86  52  30 E8        30.17F
$$

VAZ100-292000-
MARINE

STATION/POSITION TIME  TEMP    WIND        PRES    WAVE   SWELL
                       AIR SEA DIR/SP/G            HT/PER HT/PER
                 (UTC) (F)     (DEG/KT/KT) (MB)    (FT/S) (FT/S)
15NM E FENWICK I 1850   76 81  140/  4/  6 1022.3F   3/11   3/11
GOOSES REEF MD   1900   78 79  170/ 16/ 17 1021.9F
POTOMAC MD       1900   79 80  150/ 12/ 16 1020.4F   1/ 2
STINGRAY PT      1900   79 81  160/  6/  8 1022.2F   0
JAMESTOWN VA     1900   82 83  130/  6/  8   N/A
CHESAPEAKE LGHT  1800   76      60/  9/ 10 1023.3S
CAPE HENRY BUOY  1828      79                N/A     3/11   2/11
1ST LANDING BUOY 1900      80              1021.8F   2/ 5
CAPE CHARLES BUO 1826      79                N/A     3/11   3/11
OFFSHORE WE BUOY 1811      78                N/A     4/10   3/10
64NM E OF VA BCH 1850   77 78   50/ 14/ 16 1021.4F   4/11   3/11
44100 DUCK FRF   1824      78                N/A     4/11   2/11
44056 DUCK FRF   1811      78                N/A     4/11   2/11
DIAMOND SHLS NC  1850   78 83   20/ 19/ 23 1019.8F   6/11   5/11
CAPE LOOKOUT NC  1900   80      40/ 18/ 22 1020.3F
$$


USA.gov is the U.S. government's official web portal to all federal, state and local government web resources and services.